Location: Squirrel Cove
(50.1074°N, 124.9139°W)
Time: 00:51:33
(UTC-08:00)

BlueWalker 3 - Pass Details

Date: 09 December 2022
Orbit: 499 x 517 km, 53.2° (Epoch: 29 January)

Event Time Altitude Azimuth Distance (km) Brightness Sun altitude
Rises 16:55:53 0° 290° (WNW) 2,637 6.3 -6.0°
Reaches altitude 10° 16:58:06 10° 292° (WNW) 1,745 5.3 -6.4°
Maximum altitude 17:02:03 76° 18° (NNE) 533 1.9 -6.9°
Drops below altitude 10° 17:05:58 10° 105° (ESE) 1,726 4.2 -7.5°
Enters shadow 17:07:38 - 107° (ESE) 2,394 4.9 -7.7°
